www.pogodaiklimat.ru

Погода и климат >> Архив погоды >> Россия >> Ленинградская область >> Ефимовская


ПОГОДА в Ефимовской

  • Прогноз погоды в Ефимовской
  • Монитор погоды в Ефимовской

АРХИВ ПОГОДЫ в Ефимовской

Время (UTC), дата Ветер
(напр.,м/с)
 
Видим.   Явления Облачность Т
(С)
Тd
(С)
f
(%)
Тe
(С)
Тes
(С)
Комфортность P
(гПа)
Po
(гПа)
Тmin
(С)
Tmax
(С)
R
(мм)
R24
(мм)
S
(см)
03 10.09 Ю 1 н/о н/о +9.3 +9.2 99 +9 +9 1027.4 1006.0 +9.1
06 10.09 ЮВ 3 20 км 5/5 600 м
[Cu med, cong]
+15.0 +13.2 89 +14 +15 1027.1 1006.1 +9.0
09 10.09 ЮВ 2 н/о н/о +21.8 +15.4 67 +25 +25 комфорт 1026.9 1006.4
12 10.09 н/о н/о 0.0 0.0 100
15 10.09 ЮВ 1 н/о н/о +22.9 +15.7 64 +27 +27 душно 1026.2 1005.8
18 10.09 ЮВ 1 50 км 3/0
[Ci sp]
+14.4 +14.1 98 +15 +15 1027.1 1006.1 +25.3
21 10.09 ЮВ 1 н/о н/о +13.1 +12.9 99 +13 +13 1027.3 1006.2
00 11.09 штиль 0 н/о н/о +11.4 +11.2 99 +11 +11 1027.3 1006.0
03 11.09 Ю 1 н/о н/о +9.2 +9.2 100 +8 +8 1026.9 1005.5 +9.1
06 11.09 ЮВ 2 20 км 3/0
[Ci sp]
+15.4 +13.7 90 +15 +18 1025.8 1004.9 +9.1
09 11.09 Ю 4 н/о н/о +22.1 +13.8 59 +25 +25 комфорт 1024.4 1004.0
12 11.09 Ю 3 н/о н/о +21.2 +13.5 61 +24 +24 комфорт 1024.1 1003.6
15 11.09 Ю 2 н/о н/о +19.8 +13.5 67 +22 +22 комфорт 1023.2 1002.6
18 11.09 Ю 2 50 км 5/0
[Ac trans]
+16.4 +13.2 81 +17 +17 1022.4 1001.6 +22.9
21 11.09 Ю 1 н/о н/о +13.0 +11.0 88 +13 +13 1022.6 1001.6
00 12.09 Ю 2 н/о н/о +11.4 +10.2 92 +10 +10 1022.7 1001.5
03 12.09 Ю 2 н/о н/о +10.6 +9.7 94 +9 +9 1022.8 1001.6 +9.9
06 12.09 Ю 1 20 км 8/0
[Cc]
+14.0 +10.3 78 +14 +17 1022.6 1001.6 +9.9
09 12.09 ЮЗ 2 н/о н/о +19.8 +9.5 51 +22 +22 комфорт 1021.4 1000.9
12 12.09 ЮЗ 2
{10}
н/о н/о +20.0 +9.8 52 +22 +22 комфорт 1019.9 999.4
15 12.09 ЮЗ 2 н/о н/о +18.7 +9.5 55 +20 +20 1018.3 997.7
18 12.09 Ю 1 50 км 9/0
[Ac trans]
+15.4 +10.2 71 +16 +16 1017.3 996.5 +21.5
21 12.09 Ю 1 н/о н/о +13.9 +10.2 78 +14 +14 1016.2 995.4
00 13.09 ЮЗ 1 н/о н/о +13.1 +10.5 84 +13 +13 1015.6 994.7
03 13.09 Ю 1 н/о н/о +11.2 +9.9 92 +11 +11 1015.1 994.1 +11.2
06 13.09 ЮЗ 2 20 км 9/0
[Ac trans]
+13.0 +10.9 87 +12 +13 1014.6 993.7 +11.0
09 13.09 ЮЗ 2 н/о н/о +15.4 +10.6 73 +15 +15 1013.1 992.4
12 13.09 ЮЗ 1 н/о н/о +14.9 +10.7 76 +15 +15 1011.7 991.0
15 13.09 Ю 2 н/о н/о +13.3 +11.4 88 +13 +13 1009.7 989.0 0.4
18 13.09 Ю 2 4000 м слаб. дождь 10/10 360 м
[Frnb Ns]
+12.5 +11.7 95 +11 +11 1007.0 986.2 +16.6 0.5
21 13.09 Ю 1 н/о н/о +11.3 +10.8 97 +11 +11 1002.9 982.1
00 14.09 СЗ 2 н/о н/о +10.5 +10.3 99 +9 +9 1001.9 981.1
03 14.09 СЗ 3
{11}
н/о н/о +9.3 +8.7 96 +7 +7 1004.7 983.7 +8.3 16
06 14.09 З 4
{10}
20 км 9/9 450 м
[Sc diur, vesp]
+9.4 +7.7 89 +6 +7 1007.0 986.0 +8.3 17
09 14.09 З 5-10
{10}
н/о н/о +10.5 +6.8 78 +8 +8 1008.6 987.6
12 14.09 З 4
{11}
н/о н/о +13.1 +6.1 62 +12 +12 1009.3 988.5
15 14.09 З 3
{11}
н/о н/о +11.1 +3.4 59 +10 +10 1010.3 989.3 0.7
18 14.09 З 1 50 км 9/0
[Ac trans]
+6.2 +3.5 83 +5 +5 1011.2 989.9 +13.7 0.4
21 14.09 З 1 н/о н/о +6.2 +5.2 93 +5 +5 1011.4 990.1
00 15.09 СЗ 1 н/о н/о +5.2 +4.9 98 +4 +4 1011.7 990.3
03 15.09 З 1 н/о н/о +5.1 +4.8 98 +4 +4 1011.6 990.2 +4.4 0.1
06 15.09 З 1 20 км 10/10 420 м
[St]
+6.4 +5.7 95 +5 +5 1011.1 989.8 +4.4 0.3
09 15.09 ЮЗ 2 н/о н/о +9.6 +5.3 75 +8 +8 1008.8 987.8
12 15.09 Ю 2 н/о н/о +9.2 +5.2 76 +8 +8 1005.3 984.3
15 15.09 Ю 4 н/о н/о +6.9 +6.4 97 +3 +3 999.3 978.3 5
18 15.09 Ю 4 10 км слаб. дождь 10/10 420 м
[Frnb Ns]
+7.2 +6.9 98 +3 +3 992.8 971.9 +10.5 8
21 15.09 ЮЗ 2 н/о н/о +8.8 +8.5 98 +7 +7 989.5 968.8
00 16.09 З 2 н/о н/о +9.4 +8.3 93 +8 +8 989.2 968.6
03 16.09 ЮЗ 2 н/о н/о +8.9 +7.7 92 +7 +7 988.9 968.2 +6.9 8
06 16.09 З 2 20 км 10/10 600 м
[Sc]
+9.3 +7.4 88 +8 +8 988.1 967.5 +7.3 5
09 16.09 З 2 н/о н/о +11.2 +7.1 76 +10 +10 987.8 967.3
12 16.09 н/о н/о 0.0 0.0 100
15 16.09 ЮЗ 2 н/о н/о +8.6 +7.8 95 +7 +7 986.9 966.3 6
18 16.09 З 3 4000 м слаб. дождь 10/10 300 м
[Frnb Ns]
+7.8 +7.4 97 +5 +5 987.2 966.5 +13.2 11
21 16.09 н/о н/о 0.0 0.0 100
00 17.09 З 2 н/о н/о +6.3 +5.8 97 +4 +4 990.3 969.4

 

Местоположение метеостанции Ефимовская (Ленинградская область, Россия): широта 59.50 долгота 34.70 высота над уровнем моря 176 м.

В архиве по умолчанию представлена погода в Ефимовской за последнюю неделю. Архивные данные за месяц целиком и за предыдущие месяцы, начиная с января 2011 года, Вы можете получить, выбрав интересующий диапазон дат из раскрывающегося списка и нажав кнопку "Ввод!".


*Определитесь, кто Вы:
робот инопланетянин человек

Внимание! Время в таблицах - всемирное. Для получения местного времени необходимо прибавить поправку, которая равна 3 ч.

Смотрите также архив погоды в соседних городах и на ближайших метеорологических станциях:

Погода в Шугозере (Ленинградская область, Россия) (62 км)
Погода в Тихвине (Ленинградская область, Россия) (67 км)
Погода в Бабаево (Вологодская область, Россия) (70 км)
Погода в Устюжне (Вологодская область, Россия) (122 км)
Погода в Винницах (Ленинградская область, Россия) (126 км)
Погода в Боровичах (Новгородская область, Россия) (129 км)
Погода в Окуловке (Новгородская область, Россия) (149 км)
Погода в Новой Ладоге (Ленинградская область, Россия) (150 км)
Погода в Лодейном Поле (Ленинградская область, Россия) (150 км)
Погода в Киришах (Ленинградская область, Россия) (151 км)

Пояснения к столбцам:

Ветер - указаны скорость ветра в м/с - средняя за 10 мин, порывы в срок и между сроками (в фигурных скобках) и направление, откуда дует ветер: С - северный, СВ - северо-восточный, В - восточный, ЮВ - юго-восточный, Ю - южный, ЮЗ - юго-западный, З - западный, СЗ - северо-западный.
Видимость - горизонтальная дальность видимости в метрах или километрах. При видимости от 1 до 10 км при отсутствии осадков обычно наблюдается дымка, при ухудшении видимости до 1 км и менее - туман. В сухую погоду видимость может ухудшаться дымом, пылью или мглою.
Явления - указаны атмосферные явления, наблюдавшиеся в срок или в последний час перед сроком; фигурными скобками обозначены явления, наблюдавшиеся между сроками (за 1-3 часа до срока); квадратными скобками обозначены град или гололедные отложения с указанием их диаметра в мм.
Облачность - указаны через наклонную черту общая и нижняя облачность в баллах и высота нижней границы облаков в метрах; квадратными скобками обозначены формы облаков: Ci - перистые, Cs - перисто-слоистые, Cc - перисто-кучевые, Ac - высококучевые, As - высокослоистые, Sc - слоисто-кучевые, Ns - слоисто-дождевые, Cu - кучевые, Cb - кучево-дождевые. Подробнее классификацию облаков см. в Атласе облаков (PDF).
T - Температура воздуха - температура, измеренная на высоте 2 м над землей.
Td - Температура точки росы - температура, при понижении до которой содержащийся в воздухе водяной пар достигнет насыщения.
f - Относительная влажность воздуха - влажноcть воздуха, измеренная на высоте 2 м над землей.
Te - Эффективная температура - температура, которую ощущает одетый по сезону человек в тени. Характеристика душности погоды. При расчете учитывается влияние влажности воздуха и скорости ветра на теплоощущения человека.
Tes - Эффективная температура на солнце - температура, которую ощущает человек, с поправкой на солнечный нагрев. Характеристика знойности погоды. Зависит от высоты солнца над горизонтом, облачности и скорости ветра. Ночью, в пасмурную погоду, а также при ветре 12 м/с и более поправка равна нулю.
P - Атмосферное давление - приведенное к уровню моря атмосферное давление.
Po - Атмосферное давление - измеренное на уровне метеостанции атмосферное давление.
Tmin - Минимальная температура - минимум температуры воздуха на высоте 2 м над землей.
Tmax - Максимальная температура - максимум температуры воздуха на высоте 2 м над землей.
R - Количество осадков - Количество выпавших осадков за период времени, мм. При наведении курсора мыши на число - период времени, за который выпало указанное количество осадков.
R24 - Количество осадков - Количество выпавших осадков за 24 часа, мм.
S - Снежный покров - Высота снежного покрова, см. При наведении курсора мыши на число - состояние снежного покрова и степень покрытия местности в баллах.